www.pogodaiklimat.ru

Погода и климат >> Архив погоды >> Португалия >> Ангра-ду-Эроижму


ПОГОДА в Ангра-ду-Эроижму

  • Прогноз погоды в Ангра-ду-Эроижму
  • Монитор погоды в Ангра-ду-Эроижму

АРХИВ ПОГОДЫ в Ангра-ду-Эроижму

Время (UTC), дата Ветер
(напр.,м/с)
 
Видим.   Явления Облачность Т
(С)
Тd
(С)
f
(%)
Тe
(С)
Тes
(С)
Комфортность P
(гПа)
Po
(гПа)
Тmin
(С)
Tmax
(С)
R
(мм)
R24
(мм)
S
(см)
07 17.04 штиль 0 н/о н/о +11.6 +8.0 79 +11 +11 1014.9 1004.1
08 17.04 штиль 0
{5}
н/о н/о +12.5 +8.5 77 +12 +12 1015.2 1004.4
09 17.04 нст 1
{5}
2000 м 3/3 1200 м
[Cu med, cong Ci fib]
+13.7 +8.9 73 +14 +16 1015.8 1005.0
10 17.04 Ю 4-7
{7}
н/о н/о +14.4 +9.0 70 +13 +13 1015.9 1005.2
11 17.04 Ю 5-7
{8}
н/о н/о +15.3 +10.5 73 +14 +14 1016.6 1005.9
12 17.04 Ю 4-7
{9}
2000 м 8/8 900 м
[Cu med, cong]
+16.0 +10.3 69 +15 +17 1017.0 1006.3
13 17.04 Ю 5-7
{9}
н/о н/о +15.7 +9.4 66 +15 +15 1017.2 1006.5
14 17.04 ЮВ 4
{7}
н/о н/о +15.3 +10.6 74 +14 +14 1017.2 1006.5
15 17.04 нст 1
{6}
1800 м 10/10 200 м
[St Ac trans]
+16.0 +10.4 69 1017.4 1006.6
16 17.04 штиль 0 н/о н/о +15.4 +11.2 76 +15 +15 1017.4 1006.7
17 17.04 С 1 н/о н/о +15.4 +13.0 86 +16 +16 1017.1 1006.4
18 17.04 Ю 4-6
{7}
н/о н/о +14.8 +14.8 100 +13 +13 1017.4 1006.7 +16.6
19 17.04 Ю 3-6
{7}
н/о н/о +14.3 +14 +14 1017.7 1007.0 0.6
20 17.04 С 1
{6}
н/о н/о +14.4 -29.8 3 +15 +15 1018.0 1007.3 0.7
21 17.04 нст 1 н/о н/о +14.5 -30.3 3 +15 +15 1018.6 1007.8 2
22 17.04 штиль 0 н/о н/о +14.7 +15 +15 1019.2 1008.5 0.1
23 17.04 штиль 0 н/о н/о +14.8 +15 +15 1019.4 1008.7 0.1
00 18.04 штиль 0 н/о н/о +14.7 -30.2 3 +15 +15 1019.4 1008.7
01 18.04 штиль 0 н/о н/о +15.0 +15 +15 1019.7 1008.9
02 18.04 штиль 0 н/о н/о +15.1 -29.1 3 +15 +15 1019.7 1008.9
03 18.04 штиль 0 н/о н/о +14.4 +15 +15 1019.6 1008.8
04 18.04 штиль 0 н/о н/о +14.4 +15 +15 1019.6 1008.9
05 18.04 штиль 0 н/о н/о +14.0 -30.7 3 +14 +14 1019.5 1008.7
06 18.04 штиль 0 н/о н/о +14.3 +15 +15 1019.7 1009.0 +13.6
07 18.04 штиль 0 н/о н/о +13.4 -31.1 3 +14 +14 1020.4 1009.5
08 18.04 штиль 0 н/о н/о +14.2 -30.5 3 +14 +14 1020.9 1010.1
09 18.04 штиль 0 1500 м 3/3 300 м
[Cu med, cong Ci fib]
+15.2 +13.7 91 +15 +18 1021.3 1010.6
10 18.04 штиль 0 н/о н/о +16.5 +17 +17 1021.6 1010.9
11 18.04 штиль 0 н/о н/о +16.9 +17 +17 1022.3 1011.6
12 18.04 штиль 0 1000 м 10/10 180 м
[Cu Sc]
+16.0 +14.9 93 +16 +16 1022.6 1011.9
13 18.04 ЮВ 4 н/о н/о +16.4 -28.0 3 +16 +16 1022.7 1012.0
14 18.04
{5}
н/о н/о +16.9 -28.7 3 1022.6 1011.9
15 18.04 нст 2
{6}
500 м 10/10 100 м
[Frnb Ns]
+16.0 +14.4 90 +16 +16 1022.6 1011.8
16 18.04 нст 2
{5}
н/о н/о +16.5 1022.2 1011.5
17 18.04 Ю 4-7
{7}
н/о н/о +16.7 +16 +16 1022.2 1011.5
18 18.04 С 3
{7}
н/о н/о +16.4 -29.0 3 +16 +16 1022.4 1011.7 +17.4
19 18.04 Ю 3-5
{5}
н/о н/о +16.2 -29.2 3 +16 +16 1022.9 1012.1
20 18.04 С 2
{7}
н/о н/о +16.1 -28.4 3 +16 +16 1023.3 1012.5
21 18.04 штиль 0 н/о н/о +15.9 -29.4 3 +16 +16 1023.8 1013.0
22 18.04 нст 2
{5}
н/о н/о +15.8 1024.8 1014.0
23 18.04 С 1 н/о н/о +15.3 +16 +16 1024.9 1014.1
00 19.04 штиль 0 н/о н/о +14.9 +15 +15 1025.0 1014.2
01 19.04 штиль 0 н/о н/о +14.6 -30.2 3 +15 +15 1025.1 1014.3
02 19.04 штиль 0 н/о н/о +15.4 +16 +16 1024.9 1014.1
03 19.04 штиль 0 н/о н/о +16.0 +16 +16 1024.8 1014.0
04 19.04 штиль 0 н/о н/о +16.0 +16 +16 1024.5 1013.8
05 19.04 штиль 0 н/о н/о +15.9 +16 +16 1024.5 1013.8
06 19.04 штиль 0 н/о н/о +15.6 +16 +16 1024.6 1013.8 +14.6
07 19.04 штиль 0 н/о н/о +15.3 +16 +16 1025.0 1014.2
08 19.04 штиль 0 н/о н/о +15.4 -29.7 3 +16 +16 1025.3 1014.5
09 19.04 штиль 0 н/о н/о +16.1 +16 +16 1025.7 1014.9
10 19.04 штиль 0 н/о н/о +16.5 +17 +17 1026.1 1015.4
11 19.04 штиль 0 н/о н/о +18.4 +18.4 100 +19 +19 1026.5 1015.8
12 19.04 штиль 0 н/о н/о +17.3 +17.3 100 +17 +17 1026.7 1015.9
13 19.04 штиль 0 н/о н/о +18.5 +18.5 100 +19 +19 1026.5 1015.8
14 19.04 штиль 0 н/о н/о +17.8 +17.8 100 +18 +18 1026.7 1015.9
15 19.04 штиль 0 н/о н/о +17.9 +17.9 100 +18 +18 1026.8 1016.1
16 19.04 штиль 0 н/о н/о +17.3 +17 +17 1026.7 1015.9
17 19.04 штиль 0 н/о н/о +17.4 -26.2 4 +17 +17 1026.6 1015.9
18 19.04 штиль 0 н/о н/о +17.1 -28.5 3 +17 +17 1026.9 1016.2 +19.3
19 19.04 штиль 0 н/о н/о +17.1 -28.5 3 +17 +17 1027.3 1016.5
20 19.04 штиль 0 н/о н/о +17.0 +17 +17 1027.5 1016.7
21 19.04 штиль 0 н/о н/о +16.8 -28.7 3 +17 +17 1028.1 1017.3
22 19.04 штиль 0 н/о н/о +16.2 +16 +16 1028.6 1017.8
23 19.04 штиль 0 н/о н/о +16.0 -28.5 3 +16 +16 1028.7 1017.8
00 20.04 З 2 н/о н/о +16.5 +17 +17 1028.1 1017.3
01 20.04 штиль 0 н/о н/о +17.4 +15.1 86 +17 +17 1028.0 1017.2
02 20.04 штиль 0 н/о н/о +16.3 +15.5 95 +16 +16 1027.8 1017.0
03 20.04 штиль 0 н/о н/о +15.1 +14.8 98 +15 +15 1027.3 1016.5
04 20.04 штиль 0 н/о н/о +14.8 +14.8 100 +14 +14 1027.3 1016.5
05 20.04 штиль 0 н/о н/о +15.0 +15.0 100 +15 +15 1027.4 1016.6
06 20.04 СЗ 3 н/о н/о +14.5 +14.5 100 +13 +13 1027.2 1016.4 +14.4
07 20.04 штиль 0 н/о н/о +15.6 +15.6 100 +15 +15 1028.1 1017.3
08 20.04 С 1 н/о н/о +15.9 -29.4 3 +17 +17 1028.3 1017.5
09 20.04 штиль 0 н/о н/о +16.1 +16 +16 1028.9 1018.0
10 20.04 СВ 2
{5}
н/о н/о +16.1 +16.1 100 +16 +16 1029.0 1018.1
11 20.04 С 3
{6}
н/о н/о +17.2 +16.8 97 +17 +17 1029.3 1018.5
12 20.04 СВ 3-6
{6}
н/о н/о +17.8 +16.9 94 +18 +18 1029.1 1018.4
13 20.04 СВ 4-7
{7}
н/о н/о +18.2 +16.9 92 +18 +18 1029.2 1018.5
14 20.04 СВ 5-8
{8}
н/о н/о +18.6 +14.7 78 +19 +19 1029.2 1018.5
15 20.04 СВ 4-7
{8}
н/о н/о +18.4 +15.3 82 +19 +19 1029.3 1018.5
16 20.04 СВ 4-7
{8}
н/о н/о +18.4 +16.7 90 +19 +19 1028.8 1018.0
17 20.04 -7
{7}
н/о н/о +17.9 +15.9 88 1028.7 1018.0
18 20.04 С 4-7
{8}
н/о н/о +18.0 +13.9 77 +18 +18 1029.1 1018.4 +19.5
19 20.04 СЗ 3-5
{7}
н/о н/о +17.4 +14.1 81 +17 +17 1029.6 1018.8
20 20.04 С 3-6
{6}
н/о н/о +16.9 +13.7 81 +17 +17 1029.8 1019.0
21 20.04 С 2
{6}
н/о н/о +16.4 +14.5 89 +16 +16 1030.0 1019.1
22 20.04 штиль 0 н/о н/о +15.7 +14.0 90 +15 +15 1030.6 1019.8
23 20.04 С 3
{6}
н/о н/о +15.9 +14.3 90 +15 +15 1030.7 1019.8
00 21.04 С 1 н/о н/о +15.9 +13.5 86 +17 +17 1030.5 1019.7
01 21.04 штиль 0 н/о н/о +15.6 +13.7 88 +15 +15 1030.2 1019.3
02 21.04 С 1 н/о н/о +15.8 +14.1 90 +16 +16 1030.1 1019.2
03 21.04 штиль 0 н/о н/о +15.8 +13.6 87 +16 +16 1029.4 1018.6
04 21.04 штиль 0 н/о н/о +15.7 +14.0 90 +15 +15 1029.0 1018.1
05 21.04 штиль 0 н/о н/о +15.4 +13.8 90 +15 +15 1028.8 1017.9
06 21.04 штиль 0 н/о н/о +15.4 +14.1 92 +15 +15 1028.7 1017.8 +15.2
07 21.04 штиль 0 н/о н/о +15.3 +14.2 93 +15 +15 1028.6 1017.8
08 21.04 штиль 0 н/о н/о +15.7 +14.0 90 +15 +15 1028.8 1017.9
09 21.04 штиль 0 н/о н/о +16.0 +14.1 88 +16 +16 1028.8 1017.9
10 21.04
{5}
н/о н/о +16.2 +13.4 83 1028.7 1017.9
11 21.04
{7}
н/о н/о +16.7 +13.2 80 1028.6 1017.8
12 21.04 ЮЗ 4-5
{7}
н/о н/о +17.5 +13.6 78 +17 +17 1028.5 1017.7
13 21.04
{5}
н/о н/о +17.9 +14.7 82 1027.6 1016.9
14 21.04 штиль 0 н/о н/о +16.9 +14.7 87 +17 +17 1027.2 1016.4
15 21.04 СВ 2
{6}
н/о н/о +16.8 +15.1 90 +17 +17 1026.9 1016.2
16 21.04 С 2
{5}
н/о н/о +16.5 +15.1 91 +17 +17 1026.5 1015.7
17 21.04 З 5-9
{9}
н/о н/о +18.1 +13.2 73 +18 +18 1026.1 1015.4
18 21.04 З 6-11
{11}
н/о н/о +17.1 +13.2 78 +16 +16 1026.4 1015.7 +18.6
19 21.04 З 4-8
{11}
н/о н/о +17.1 +13.6 80 +17 +17 1025.7 1014.9
20 21.04 ЮЗ 4-8
{11}
н/о н/о +16.5 +14.4 87 +16 +16 1025.4 1014.6
21 21.04 нст 2-6
{8}
н/о н/о +16.3 +14.8 91 1025.3 1014.5
22 21.04 З 3-9
{9}
н/о н/о +16.0 +15.1 94 +15 +15 1025.6 1014.8
23 21.04 штиль 0
{9}
н/о н/о +16.2 +15.0 93 +16 +16 1025.2 1014.4
00 22.04 С 1
{6}
н/о н/о +15.8 +15.6 99 +16 +16 1024.4 1013.7
01 22.04 С 1
{6}
н/о н/о +15.8 +15.8 100 +16 +16 1023.7 1012.9
02 22.04
{6}
н/о н/о +15.8 +15.8 100 1023.4 1012.6
03 22.04 Ю 4-8
{8}
н/о н/о +16.2 +14.7 91 +15 +15 1022.7 1011.9
04 22.04 ЮЗ 5-10
{11}
н/о н/о +15.7 +15.7 100 +14 +14 1022.6 1011.8
05 22.04 С 3-6
{11}
н/о н/о +15.8 +14.4 91 +15 +15 1022.0 1011.2
06 22.04 ЮЗ 4-7
{11}
н/о н/о +14.7 +14.7 100 +13 +13 1021.5 1010.7 +14.7
07 22.04 З 7-11
{11}
н/о н/о +14.2 +13.6 96 +12 +12 1021.4 1010.6
08 22.04 ЮЗ 6-12
{12}
н/о н/о +13.6 +11.5 87 +11 +11 1022.1 1011.2
09 22.04 ЮЗ 6-12
{12}
1500 м 3/3 600 м
[Cu med, cong]
+13.7 +8.5 71 +12 +13 1022.1 1011.2
12 22.04 ЮЗ 4 1500 м 10/10 180 м
[Cu Sc]
+15.8 +9.3 65
13 22.04 З 4-9
{12}
н/о н/о +15.8 +9.3 65 +15 +15 1022.8 1012.1
14 22.04 З 5-9
{12}
н/о н/о +15.5 +7.5 59 +14 +14 1022.5 1011.7
15 22.04 З 4-10
{12}
1500 м 10/8 300 м
[St Ac lent]
+16.3 +9.5 64 +16 +17 1022.7 1011.9
16 22.04 З 3-10
{13}
н/о н/о +14.9 +6.5 57 +14 +14 1022.0 1011.2
17 22.04 С 3-10
{10}
н/о н/о +14.9 +7.0 59 +14 +14 1022.0 1011.2
18 22.04 С 2-6
{13}
н/о н/о +15.3 +9.1 66 +15 +15 1021.8 1011.0
19 22.04 -7
{9}
н/о н/о +14.2 +7.5 64 1021.7 1010.9
20 22.04 штиль 0
{8}
н/о н/о +13.0 +7.5 69 +13 +13 1021.7 1010.8
21 22.04 штиль 0 н/о н/о +12.5 +7.1 70 +12 +12 1021.8 1010.9
22 22.04 штиль 0 н/о н/о +12.0 +8.1 77 +12 +12 1022.2 1011.3
23 22.04 штиль 0
{5}
н/о н/о +11.7 +8.0 78 +11 +11 1022.3 1011.4
00 23.04 штиль 0
{6}
н/о н/о +11.8 +8.1 78 +11 +11 1021.7 1010.8
01 23.04 штиль 0 н/о н/о +11.9 +7.8 76 +11 +11 1021.6 1010.7
02 23.04 штиль 0 н/о н/о +12.1 +7.9 75 +12 +12 1020.8 1009.9
03 23.04 штиль 0 н/о н/о +11.6 +9.1 85 +11 +11 1019.7 1008.8
04 23.04 штиль 0
{5}
н/о н/о +12.0 +9.5 85 +11 +11 1019.0 1008.1
05 23.04 Ю 4-8
{11}
н/о н/о +12.5 +9.2 80 +11 +11 1018.4 1007.5
06 23.04 Ю 6-11
{12}
н/о н/о +12.7 +9.4 80 +10 +10 1017.6 1006.8 +11.5
07 23.04 ЮЗ 6-12
{13}
н/о н/о +13.0 +9.4 79 +11 +11 1017.3 1006.5
08 23.04 ЮЗ 6-12
{14}
н/о н/о +13.5 +9.9 79 +11 +11 1017.3 1006.5
09 23.04 ЮЗ 8-16
{16}
1500 м 8/8 300 м
[St Ac lent]
+15.5 +8.8 64 +14 +14 1016.8 1006.1
10 23.04 ЮЗ 9-15
{15}
н/о н/о +15.1 +10.4 73 +13 +13 1016.8 1006.1
11 23.04 ЮЗ 7-13
{16}
н/о н/о +15.5 +12.8 84 +14 +14 1016.4 1005.7
12 23.04 ЮЗ 9-15
{16}
1000 м 9/8 270 м
[Cu hum As op]
+16.7 +12.6 77 +15 +15 1016.1 1005.5
13 23.04 ЮЗ 10-18
{18}
н/о н/о +17.1 +11.5 70 +16 +16 1015.6 1005.0
14 23.04 Ю 10-16
{18}
н/о н/о +16.9 +12.8 77 +15 +15 1015.0 1004.3
15 23.04 ЮЗ 10-16
{16}
1500 м 8/8 300 м
[Sc Ac lent]
+18.0 +4.5 41 +17 +17 1014.7 1004.1
16 23.04 ЮЗ 8-15
{18}
н/о н/о +16.9 +11.8 72 +16 +16 1014.5 1003.9
17 23.04 Ю 8-14
{16}
н/о н/о +16.9 +12.4 75 +16 +16 1014.1 1003.5
18 23.04 ЮЗ 9-14
{16}
н/о н/о +16.0 +13.1 83 +14 +14 1014.1 1003.5 +17.9
19 23.04 Ю 8-14
{16}
н/о н/о +15.7 +13.2 85 +14 +14 1014.2 1003.5
20 23.04 ЮЗ 6-13
{14}
н/о н/о +15.4 +14.2 93 +14 +14 1014.3 1003.6
21 23.04 Ю 7-11
{13}
н/о н/о +15.4 +15.0 97 +14 +14 1014.6 1003.9
22 23.04 Ю 7
{13}
н/о н/о +15.0 +15.0 100 +13 +13 1014.7 1004.0
23 23.04 Ю 6-10
{11}
н/о н/о +15.1 +15.1 100 +13 +13 1014.8 1004.1 0.1
00 24.04 Ю 6
{10}
н/о н/о +15.3 +15.3 100 +14 +14 1014.6 1003.9
01 24.04 Ю 5-9
{11}
н/о н/о +15.6 +15.6 100 +14 +14 1014.3 1003.6
02 24.04 Ю 5-9
{11}
н/о н/о +15.1 +15.1 100 +14 +14 1013.6 1002.9
03 24.04 Ю 5-8
{9}
н/о н/о +14.9 +14 +14 1013.2 1002.5 0.7
04 24.04 Ю 5-9
{11}
н/о н/о +15.1 +14 +14 1012.7 1002.1 0.1
05 24.04 ЮЗ 3-6
{11}
н/о н/о +15.4 +15.2 99 +15 +15 1012.7 1002.0
06 24.04 н/о н/о +15.3 +14.2 93 1012.7 1002.0 +14.8
07 24.04 З 4-8
{11}
н/о н/о +14.8 +12.5 86 +14 +14 1013.2 1002.5

 

Местоположение метеостанции Ангра-ду-Эроижму (Португалия): широта 38.67 долгота -27.21 высота над уровнем моря 76 м.

В архиве по умолчанию представлена погода в Ангра-ду-Эроижму за последнюю неделю. Архивные данные за месяц целиком и за предыдущие месяцы, начиная с января 2011 года, Вы можете получить, выбрав интересующий диапазон дат из раскрывающегося списка и нажав кнопку "Ввод!".


*Определитесь, кто Вы:
робот инопланетянин человек

Внимание! Время в таблицах - всемирное. Для получения местного времени необходимо прибавить поправку, которая равна 0 ч.

Смотрите также архив погоды в соседних городах и на ближайших метеорологических станциях:

Погода в Аэропорту Лажеша (Португалия) (15 км)
Погода в Сан-Жоржи (Португалия) (83 км)
Погода на Острове Грасьоса (Португалия) (84 км)
Погода в Пико (Португалия) (108 км)
Погода в Орте (Португалия) (125 км)
Погода в Каштелу-Бранку (Португалия) (131 км)
Погода в Понта-Делгаде (Португалия) (168 км)
Погода в Санта-Марии (Португалия) (261 км)
Погода на Флошише (Португалия) (349 км)
Погода в Фуншале (Португалия) (1148 км)

Пояснения к столбцам:

Ветер - указаны скорость ветра в м/с - средняя за 10 мин, порывы в срок и между сроками (в фигурных скобках) и направление, откуда дует ветер: С - северный, СВ - северо-восточный, В - восточный, ЮВ - юго-восточный, Ю - южный, ЮЗ - юго-западный, З - западный, СЗ - северо-западный.
Видимость - горизонтальная дальность видимости в метрах или километрах. При видимости от 1 до 10 км при отсутствии осадков обычно наблюдается дымка, при ухудшении видимости до 1 км и менее - туман. В сухую погоду видимость может ухудшаться дымом, пылью или мглою.
Явления - указаны атмосферные явления, наблюдавшиеся в срок или в последний час перед сроком; фигурными скобками обозначены явления, наблюдавшиеся между сроками (за 1-3 часа до срока); квадратными скобками обозначены град или гололедные отложения с указанием их диаметра в мм.
Облачность - указаны через наклонную черту общая и нижняя облачность в баллах и высота нижней границы облаков в метрах; квадратными скобками обозначены формы облаков: Ci - перистые, Cs - перисто-слоистые, Cc - перисто-кучевые, Ac - высококучевые, As - высокослоистые, Sc - слоисто-кучевые, Ns - слоисто-дождевые, Cu - кучевые, Cb - кучево-дождевые. Подробнее классификацию облаков см. в Атласе облаков (PDF).
T - Температура воздуха - температура, измеренная на высоте 2 м над землей.
Td - Температура точки росы - температура, при понижении до которой содержащийся в воздухе водяной пар достигнет насыщения.
f - Относительная влажность воздуха - влажноcть воздуха, измеренная на высоте 2 м над землей.
Te - Эффективная температура - температура, которую ощущает одетый по сезону человек в тени. Характеристика душности погоды. При расчете учитывается влияние влажности воздуха и скорости ветра на теплоощущения человека.
Tes - Эффективная температура на солнце - температура, которую ощущает человек, с поправкой на солнечный нагрев. Характеристика знойности погоды. Зависит от высоты солнца над горизонтом, облачности и скорости ветра. Ночью, в пасмурную погоду, а также при ветре 12 м/с и более поправка равна нулю.
P - Атмосферное давление - приведенное к уровню моря атмосферное давление.
Po - Атмосферное давление - измеренное на уровне метеостанции атмосферное давление.
Tmin - Минимальная температура - минимум температуры воздуха на высоте 2 м над землей.
Tmax - Максимальная температура - максимум температуры воздуха на высоте 2 м над землей.
R - Количество осадков - Количество выпавших осадков за период времени, мм. При наведении курсора мыши на число - период времени, за который выпало указанное количество осадков.
R24 - Количество осадков - Количество выпавших осадков за 24 часа, мм.
S - Снежный покров - Высота снежного покрова, см. При наведении курсора мыши на число - состояние снежного покрова и степень покрытия местности в баллах.